Showing default

EAGLET 1, 43790

Orbit data source: Space-Track

EAGLET 1, 43790 is a payload satellite owned by OHB-I (IT) in SSO that was launched on Mon, 03 Dec 2018 UTC via an FALCON 9 launch vehicle from the Air Force Western Test Range (AFWTR). Payload-class satellites include a variety of spacecraft equipped with specific instruments for various scientific and technological missions. These include communications satellites like Starlink; space stations such as the ISS; scientific satellites like the Hubble; Earth observation satellites from companies like Planet Labs, Umbra, and HawkEye 360; GPS; miniature CubeSats for education and research; and military/defense satellites.

Loading next visibility...
Identifier
43790, 2018-099AJ
Orbit
SSO
Country
Flag of ITIT
Related business
Manufacturer
OHB-I
Mission
Operational Commercial Technology
Bus & Motor
CUBESAT 3U, Unknown motor
Mass
5 kg wet, 5 kg dry
Launch date (UTC)
2018-12-03 (8 years ago)
Launch vehicle
FALCON 9
Launch site
Air Force Western Test Range (AFWTR)
Object type
Payload
Rocket body
Debris
Shape & HBR
Box + 2 Pan, 0.1 m
Radar Cross Section
0.035 m², Medium (>0.1 m² and < 1m²)

Expand to show TLE details & history
Last TLE update: 1 day ago

TLE from 1 day ago
0 EAGLET 1
1 43790U 18099AJ  26175.12953031  .00003286  00000-0  18965-3 0  9996
2 43790  97.4230 224.6143 0010001 328.8929  31.1709 15.12983619413380
Epoch: 2026-06-24T03:06Z
TLE epoch observation values (Epoch: 2026-06-24T03:06:31.418Z)
Latitude
-0.00005°
Longitude
-94.30777°
Altitude
524.279 km
Speed
7.604 km/s
True Right ascension
14h 58m 27s
True Declination
0° 00' 00"
Sunlit
Object was in full shadow at epoch
Visualization orbit readout
Latitude
Unknown
Longitude
Unknown
Altitude
Unknown
Speed
Unknown
Apparent Right ascension
Unknown
Apparent Declination
Unknown
Sunlit
N/A
Visualization observer readout
Local Sidereal Time
17:58:59
Azimuth
Unknown
Elevation
Unknown
Doppler factor
Unknown
Orbital elements
Apogee altitude
530.986 km
Perigee altitude
517.18 km
Semi-major axis
6,902.22 km
Eccentricity
0.001
Inclination
97.423°
RAAN
224.6143°
Arg. of periapsis
328.8929°
True anomaly
31.23028°
Mean anomaly
31.1709°
Eccentric anomaly
31.20058°
Mean motion
3.78495 °/min
Orbital period
95.11 mins
BSTAR
0.00018965
Loading maneuver chart data...
Computing Atmospheric mass density...
Loading historical data...
Loading historical data...
Loading historical data...
Loading historical data...
Loading historical data...
Loading historical data...
Loading historical data...

Documentation

Showing up to 5 results
|